Ihor Pikhalyonok

Olheiro - Metalist
21 Out 2027
Quinta-feira
Processo

Personalidade

Adaptabilidade (3) Ambição (13) Controvérsia (19) Lealdade (14) Pressão (1) Profissionalismo (1) Espírito Esportivo (13) Temperamento (8)

Perfil

Estilo de Treinamento Democrático
Licença Continental C
Determinação 8
Gestão de Pessoas 10
Motivação 8
Disciplina 9
Satisfação no Trabalho
82%
Fadiga
0%
Função Olheiro
Salário 69.1K p/s
Contrato 14.03.2028

Desempenho

Comportamento Bom
Eficácia do Treinamento
29%
Desenvolvimento do Jogador
30%
Prevenção de Lesões
45%
Implementação Tática
55%

Eventos Recentes

Avaliou um jogador 7d atrás
Participou de uma reunião de recrutamento 7d atrás
Avaliou um jogador 7d atrás
Avaliou um jogador 7d atrás
Avaliou um jogador 7d atrás
Avaliou um jogador 7d atrás
Avaliou um jogador 7d atrás
Avaliou um jogador 14d atrás

Monitorando agora

155
Jogador Clube Status Habilidade Confiança Observado Última observação Último voto
Santiago Sala Güemes Ativo 118 / 92 40% 2 18.10.2027 -
Victor Mbaoma Tusker Ativo 95 / 89 40% 4 18.10.2027 -
Sebastián Cocimano Nueva Chicago Ativo 97 / 93 40% 4 17.10.2027 -
Jonathan Cañete Portuguesa Ativo 100 / 117 40% 2 17.10.2027 -
Chinedu Onyinjekwu Bayelsa United Ativo 82 / 79 40% 2 16.10.2027 -
Santiago Apa All Boys Ativo 104 / 127 40% 3 16.10.2027 -
Fernando Mimbacas Juventud Ativo 103 / 96 40% 2 15.10.2027 -
Richard Celis Zamora Ativo 124 / 122 40% 1 15.10.2027 -
Jorge Obregón Deportivo Pasto Ativo 122 / 129 40% 2 14.10.2027 -
Facundo Milán Central Espanol Ativo 93 / 111 40% 1 14.10.2027 -
Auwalu Ali Malam Kano Pillars Ativo 96 / 110 40% 2 12.10.2027 -
Matías Sosa Arsenal Ativo 100 / 124 40% 4 12.10.2027 -
Agustín Gallo Tristán Suárez Ativo 111 / 91 40% 2 11.10.2027 -
Kevin Méndez Dinamo Tbilisi Ativo 107 / 97 40% 1 11.10.2027 -
Matías Samaniego Talleres Ativo 91 / 113 40% 1 10.10.2027 -
Lisandro Cabrera Maipú Ativo 121 / 114 40% 3 09.10.2027 -
Ismail Sarki Niger Tornadoes Ativo 114 / 105 40% 1 09.10.2027 -
Maren Kefas Plateau United Ativo 87 / 94 40% 1 07.10.2027 -
Leandro Suhr Boston River Ativo 114 / 103 40% 4 06.10.2027 -
Federico Martínez Liverpool Montevideo Ativo 133 / 136 40% 1 06.10.2027 -
Luca Franco Arsenal Ativo 105 / 97 40% 2 05.10.2027 -
Francisco Bonfiglio Boston River Ativo 123 / 125 40% 1 05.10.2027 -
Abel Argañaraz Gimnasia y Esgrima Ativo 92 / 119 40% 1 04.10.2027 -
Maclyn Biokpo Jenewari Rivers United Ativo 121 / 93 40% 4 03.10.2027 -
Junior Paredes Trujillanos Ativo 118 / 108 40% 1 03.10.2027 -
Chineme Chinonso Ikorodu City Ativo 95 / 114 40% 4 02.10.2027 -
Misael Sosa Godoy Cruz Ativo 101 / 125 40% 4 01.10.2027 -
Adalberto Peñaranda Deportivo Tachira Ativo 104 / 119 40% 1 01.10.2027 -
Juan Rocca Gimnasia y Tiro Ativo 109 / 119 40% 4 28.09.2027 -
Lucas Carrizo Plaza Colonia Ativo 108 / 119 40% 1 28.09.2027 -
Fabricio Rojas Gimnasia y Tiro Ativo 114 / 98 40% 3 27.09.2027 -
Marco Bustillo Zamora Ativo 117 / 82 40% 1 26.09.2027 -
Joaquín Zeballos Wanderers Ativo 114 / 102 40% 1 26.09.2027 -
Tiziano Dornell Danubio Ativo 121 / 128 40% 2 25.09.2027 -
Nicolás Heiz Maipú Ativo 91 / 124 40% 3 25.09.2027 -
Luciano Inverso Rentistas Ativo 111 / 105 40% 1 22.09.2027 -
Samson Olasupo Remo Stars Ativo 92 / 114 40% 1 20.09.2027 -
Alan Bonansea Colón Ativo 119 / 108 40% 1 19.09.2027 -
Lucio Castillo Colegiales Ativo 122 / 105 40% 1 18.09.2027 -
Samuel Anakwe Remo Stars Ativo 83 / 98 40% 1 16.09.2027 -
Adama Traoré Bidco United Ativo 108 / 103 40% 1 14.09.2027 -
Juan Mendoza Güemes Ativo 115 / 106 40% 1 13.09.2027 -
Shuaibu Ibrahim Wikki Tourists Ativo 94 / 81 40% 2 11.09.2027 -
Gustavo Viera Cerro Largo Ativo 90 / 117 40% 1 09.09.2027 -
Emiliano Saliadarre Miramar Misiones Ativo 125 / 112 40% 1 08.09.2027 -
Javier Martínez Almirante Brown Ativo 94 / 118 40% 1 04.09.2027 -
Marco Miori Alvarado Ativo 96 / 114 40% 1 03.09.2027 -
Timothy Zechariah Rivers United Ativo 107 / 109 40% 2 02.09.2027 -
Agustín Occhiato Katsina United Ativo 78 / 80 40% 1 01.09.2027 -
Joseph Atule Barau Ativo 102 / 88 40% 1 28.08.2027 -
Oto John ES Mostaganem Ativo 103 / 124 40% 2 26.08.2027 -
Andrii Bobynets Prykarpattia Ativo 99 / 102 30% 1 / 1m 25.08.2027 -
Augusto Berrondo Tristán Suárez Ativo 100 / 88 40% 1 23.08.2027 -
Chukwuemeka Obioma Abia Warriors Ativo 82 / 109 40% 1 16.08.2027 -
Bismark Asante Ashanti Gold Ativo 103 / 93 40% 1 14.08.2027 -
Enzo Cabrera Danubio Ativo 123 / 117 40% 1 12.08.2027 -
Miloš Bočić Altamura Ativo 109 / 100 40% 2 10.08.2027 -
Antonio Cioffi Latina Ativo 118 / 121 40% 1 10.08.2027 -
Alejo Cruz Juventud Ativo 133 / 125 40% 1 06.08.2027 -
Ivo Costantino Rentistas Ativo 113 / 115 40% 1 05.08.2027 -
Don Bolsius Ascoli Ativo 109 / 85 40% 1 04.08.2027 -
Eljon Toci Dolomiti Bellunesi Ativo 101 / 96 40% 1 03.08.2027 -
George Lloyd Shrewsbury Town Ativo 97 / 105 40% 1 02.08.2027 -
Samuel Tetteh Ashanti Gold Ativo 101 / 96 40% 1 01.08.2027 -
Dean Erasmus Platinum Stars Ativo 92 / 106 40% 1 28.07.2027 -
Bautista Tomatis Racing Ativo 127 / 122 40% 1 28.07.2027 -
Nicola Dalmonte Trento Ativo 93 / 104 40% 1 27.07.2027 -
Danylo Kravchuk LNZ Ativo 112 / 114 40% 1 26.07.2027 -
Harry McKirdy Barrow AFC Ativo 89 / 100 40% 1 26.07.2027 -
Wendell Livyi Bereh Rejeitado 81 / 110 58% 1 05.07.2027 Rejeitar
Mees Rijks Bristol Rovers Ativo 125 / 100 40% 5 12.06.2027 -
Job Ochieng Real Sociedad Ativo 97 / 122 40% 1 12.06.2027 -
Jaze Kabia Grimsby Town Ativo 106 / 106 40% 1 10.06.2027 -
Alassana Jatta Notts County Ativo 102 / 110 40% 1 10.06.2027 -
Bojan Radulović Huddersfield Town Ativo 116 / 124 40% 4 09.06.2027 -
Kelly Saravanan Salford City Ativo 123 / 134 40% 2 09.06.2027 -
Tyreece Campbell Charlton Athletic Ativo 105 / 125 40% 4 08.06.2027 -
Harry Leonard Peterborough United Ativo 99 / 98 40% 3 07.06.2027 -
Sam Bell Bristol City Rejeitado 122 / 104 40% 3 07.06.2027 Rejeitar
Callum Stead Barnet Ativo 80 / 112 40% 1 07.06.2027 -
Jayden Wareham Barnet Ativo 88 / 96 40% 3 05.06.2027 -
Emanuele Schimmenti Potenza Ativo 120 / 114 40% 1 05.06.2027 -
Everton Bala Levski Ativo 136 / 139 40% 2 31.05.2027 -
Ihor Krasnopir Polissia Ativo 122 / 132 40% 6 30.05.2027 -
Camillo Tavernelli Arezzo Ativo 111 / 131 40% 2 30.05.2027 -
Aaron Drinan Swindon Town Ativo 104 / 104 40% 3 29.05.2027 -
Niall Ennis Blackpool Ativo 106 / 113 40% 3 29.05.2027 -
Dany Mota Monza Ativo 126 / 112 40% 3 29.05.2027 -
Kyle Wootton Stockport County Ativo 110 / 124 40% 1 29.05.2027 -
Josh Koroma Leyton Orient Ativo 97 / 115 40% 3 27.05.2027 -
Shilow Tracey Crawley Town Ativo 98 / 107 40% 1 27.05.2027 -
Lorent Tolaj Plymouth Argyle Ativo 129 / 123 40% 4 25.05.2027 -
Marcus Browne AFC Wimbledon Ativo 100 / 123 40% 4 24.05.2027 -
Robert Mizo Ashanti Gold Ativo 119 / 103 40% 2 24.05.2027 -
Simone Mazzocchi Cosenza Ativo 119 / 105 40% 1 24.05.2027 -
Fabrizio Cavegn Bristol Rovers Ativo 126 / 128 40% 1 21.05.2027 -
Dom Ballard Leyton Orient Ativo 118 / 133 40% 1 21.05.2027 -
Giuseppe Di Serio Spezia Ativo 112 / 121 40% 1 20.05.2027 -
Bradley Fink Wycombe Wanderers Ativo 92 / 115 40% 4 19.05.2027 -
Lewis Morgan SuperSport United Ativo 141 / 111 40% 3 16.05.2027 -
Lee Bonis Chesterfield Ativo 87 / 92 40% 2 16.05.2027 -
Louis Appéré Cambridge United Ativo 100 / 105 40% 2 14.05.2027 -
Aaron Collins Milton Keynes Dons Ativo 118 / 135 40% 2 14.05.2027 -
Stephen Humphrys Bradford City Ativo 115 / 111 40% 1 14.05.2027 -
Shayne Lavery Cambridge United Ativo 92 / 124 40% 2 11.05.2027 -
Christian Saydee Wigan Athletic Ativo 112 / 106 40% 1 09.05.2027 -
Moussa Dembélé CR Belouizdad Ativo 149 / 147 40% 1 09.05.2027 -
Bernat Guiu Virtus Entella Ativo 110 / 114 40% 1 06.05.2027 -
Lamine Guèye Barrow AFC Ativo 128 / 130 40% 1 06.05.2027 -
Marco Tumminello Benevento Ativo 125 / 90 40% 1 03.05.2027 -
John Yeboah Venezia Ativo 106 / 109 40% 2 02.05.2027 -
Silvio Merkaj Vicenza Ativo 121 / 126 40% 2 01.05.2027 -
Malik Mothersille Stockport County Ativo 98 / 94 40% 3 01.05.2027 -
Danyil Alefirenko Chornomorets Ativo 120 / 92 40% 3 23.04.2027 -
Evidence Makgopa Orlando Pirates Rejeitado 113 / 100 40% 1 22.04.2027 Mais informações
Papa Ndiaga Yade Oleksandriya Ativo 115 / 98 40% 1 21.04.2027 -
Yurii Klymchuk Kolos Ativo 116 / 108 40% 2 20.04.2027 -
Will Evans Mansfield Town Ativo 95 / 98 40% 1 14.04.2027 -
Maksym Kulish Probiy Ativo 70 / 87 58% 1 08.02.2027 -
Yurii Mykhayliv Nyva Ativo 68 / 95 58% 1 25.01.2027 -
Tedi Cara LNZ Ativo 114 / 127 40% 2 24.01.2027 -
Patrick Maswanganyi Orlando Pirates Ativo 110 / 136 40% 1 09.01.2027 -
Siyanda Ndlovu Bloemfontein Celtic Ativo 116 / 107 40% 1 25.12.2026 -
Serhiy Buletsa Oleksandriya Ativo 113 / 114 40% 1 23.12.2026 -
Kermit Billiat Ajax Cape Town Ativo 116 / 124 40% 1 23.12.2026 -
Velemseni Ndwandwe Golden Arrows Ativo 102 / 120 40% 2 20.12.2026 -
Bohdan Boichuk Khazar Ativo 102 / 125 40% 1 20.12.2026 -
Ante Roguljić Diosgyor Ativo 123 / 132 40% 1 11.12.2026 -
Maksym Tretiakov Obolon Ativo 100 / 104 40% 1 11.12.2026 -
Maksym Luniov Chornomorets Ativo 100 / 98 40% 1 10.12.2026 -
Xeber Alkain Karpaty Ativo 121 / 113 40% 1 07.12.2026 -
Bongani Modiba Black Aces Ativo 131 / 117 40% 2 21.11.2026 -
Marcelo Allende Mamelodi Sundowns Ativo 115 / 143 40% 2 14.11.2026 -
Tshepang Moremi Orlando Pirates Ativo 115 / 104 40% 2 14.11.2026 -
Nduduzo Sibiya Golden Arrows Ativo 107 / 121 40% 1 05.11.2026 -
Fredrik Bjørkan Bodo/Glimt Ativo 129 / 133 40% 1 04.11.2026 -
Ammar Ramadan DAC Dunajska Streda Ativo 129 / 132 40% 1 02.11.2026 -
Muharrem Jashari LNZ Ativo 122 / 109 40% 1 02.11.2026 -
Oleksandr Drambaiev LNZ Ativo 109 / 127 40% 2 01.11.2026 -
Jordan Lotomba Bloemfontein Celtic Ativo 123 / 110 40% 1 30.10.2026 -
Dmytro Kryskiv Shakhtar Ativo 133 / 139 40% 1 24.10.2026 -
Artem Slesar Zorya Ativo 106 / 125 40% 1 20.10.2026 -
Oleksii Hutsuliak Polissia Ativo 137 / 111 40% 1 18.10.2026 -
Ivan Kaliuzhnyi Metalist Ativo 110 / 114 40% 1 15.10.2026 -
Fawaaz Basadien Mamelodi Sundowns Ativo 125 / 135 40% 1 13.10.2026 -
Iván Calero Karpaty Ativo 124 / 134 40% 1 12.10.2026 -
Ola Brynhildsen Bodo/Glimt Ativo 126 / 106 40% 1 10.10.2026 -
Ole-Didrik Blomberg Bodo/Glimt Ativo 128 / 122 40% 1 08.10.2026 -
Conrad Wallem Austria Wien Ativo 135 / 144 40% 1 08.10.2026 -
Andrii Novikov Chernihiv Ativo 85 / 85 30% 1 / 1m 26.08.2026 -
Oleksandr Kalinin Nyva Ativo 85 / 88 52% 1 / 1m 26.08.2026 -
Dmytro Makotiak Prykarpattia Ativo 64 / 69 42% 1 / 1m 26.08.2026 -
Richie Laryea Toronto FC Ativo 125 / 103 40% 1 03.08.2026 -
Romain Del Castillo Osasuna Ativo 137 / 116 40% 1 01.08.2026 -
Ozziel Herrera Tigres Ativo 130 / 139 40% 1 01.08.2026 -